EWG17T LOWS-LEPA

Flight info

Callsign EWG17T
Flight time 1h 48m
Altitude 38000
Route DETSA DCT ADOSA DCT KALMO DCT TALEP DCT RIXOT
Aircraft A320/M-SDE3FGHIRWY/LB1

Departure

Time 2026-05-04 12:08
Airport Salzburg Airport (LOWS)

Arrival

Time 2026-05-04 13:57
Airport Palma de Mallorca Airport (LEPA)
Time Latitude Longitude Altitude Speed Heading
2026-05-04 11:42 47.79030 12.99993 1420 ft 0 kts 282°
2026-05-04 11:58 47.79026 13.00020 1420 ft 4 kts 282°
2026-05-04 11:58 47.79022 13.00046 1420 ft 4 kts 282°
2026-05-04 11:58 47.79018 13.00079 1420 ft 4 kts 279°
2026-05-04 11:59 47.79018 13.00106 1420 ft 4 kts 197°
2026-05-04 11:59 47.79041 13.00101 1420 ft 4 kts 157°
2026-05-04 11:59 47.79056 13.00091 1420 ft 0 kts 157°
2026-05-04 12:03 47.79035 13.00104 1420 ft 5 kts 157°
2026-05-04 12:03 47.79006 13.00123 1420 ft 4 kts 157°
2026-05-04 12:03 47.78968 13.00156 1420 ft 9 kts 134°
2026-05-04 12:04 47.78955 13.00236 1420 ft 7 kts 93°
2026-05-04 12:04 47.78950 13.00338 1420 ft 13 kts 103°
2026-05-04 12:04 47.78885 13.00409 1420 ft 12 kts 157°
2026-05-04 12:04 47.78792 13.00468 1420 ft 18 kts 156°
2026-05-04 12:05 47.78674 13.00544 1420 ft 19 kts 157°
2026-05-04 12:05 47.78549 13.00623 1420 ft 20 kts 156°
2026-05-04 12:05 47.78418 13.00706 1420 ft 21 kts 157°
2026-05-04 12:05 47.78282 13.00792 1420 ft 22 kts 157°
2026-05-04 12:06 47.78212 13.00856 1419 ft 0 kts 134°
2026-05-04 12:06 47.78205 13.00868 1419 ft 4 kts 134°
2026-05-04 12:07 47.78182 13.00957 1419 ft 15 kts 89°
2026-05-04 12:07 47.78212 13.01075 1418 ft 8 kts 58°
2026-05-04 12:07 47.78249 13.01078 1418 ft 5 kts 337°
2026-05-04 12:07 47.78326 13.01030 1418 ft 36 kts 337°
2026-05-04 12:08 47.78788 13.00736 1420 ft 105 kts 337°
2026-05-04 12:08 47.79627 13.00208 1430 ft 155 kts 336°
2026-05-04 12:08 47.80596 12.99588 2078 ft 150 kts 334°
2026-05-04 12:08 47.81548 12.98863 2632 ft 157 kts 328°
2026-05-04 12:09 47.82458 12.97843 2933 ft 174 kts 312°
2026-05-04 12:09 47.83197 12.96275 3164 ft 197 kts 300°
2026-05-04 12:09 47.83934 12.94418 3423 ft 221 kts 299°
2026-05-04 12:09 47.84738 12.92325 3757 ft 245 kts 299°
2026-05-04 12:10 47.85618 12.90021 4221 ft 265 kts 299°
2026-05-04 12:10 47.86528 12.87638 4988 ft 272 kts 299°
2026-05-04 12:10 47.87472 12.85175 5804 ft 276 kts 299°
2026-05-04 12:10 47.88432 12.82678 6613 ft 280 kts 299°
2026-05-04 12:11 47.89402 12.80141 7386 ft 284 kts 297°
2026-05-04 12:11 47.90045 12.77353 8111 ft 287 kts 278°
2026-05-04 12:11 47.90019 12.74375 8819 ft 291 kts 258°
2026-05-04 12:11 47.89365 12.71525 9512 ft 293 kts 241°
2026-05-04 12:12 47.88130 12.69097 10185 ft 297 kts 224°
2026-05-04 12:12 47.86460 12.67203 10415 ft 318 kts 208°
2026-05-04 12:12 47.84332 12.66017 10549 ft 339 kts 193°
2026-05-04 12:12 47.81992 12.65185 10879 ft 351 kts 193°
2026-05-04 12:13 47.79598 12.64322 11417 ft 356 kts 194°
2026-05-04 12:14 47.62266 12.57902 14829 ft 378 kts 194°
2026-05-04 12:15 47.59705 12.56959 15260 ft 381 kts 194°
2026-05-04 12:15 47.57120 12.56007 15674 ft 384 kts 194°
2026-05-04 12:15 47.54524 12.55050 16063 ft 386 kts 194°
2026-05-04 12:15 47.51904 12.54085 16429 ft 389 kts 194°
2026-05-04 12:16 47.49269 12.53117 16786 ft 391 kts 194°
2026-05-04 12:16 47.46653 12.52156 17125 ft 394 kts 194°
2026-05-04 12:16 47.43986 12.51178 17453 ft 396 kts 194°
2026-05-04 12:16 47.41307 12.50195 17762 ft 398 kts 194°
2026-05-04 12:17 47.38609 12.49204 18068 ft 400 kts 194°
2026-05-04 12:17 47.35898 12.48210 18357 ft 403 kts 194°
2026-05-04 12:17 47.33171 12.47215 18634 ft 405 kts 194°
2026-05-04 12:17 47.30432 12.46215 18902 ft 407 kts 194°
2026-05-04 12:18 47.27678 12.45214 19158 ft 409 kts 194°
2026-05-04 12:18 47.24910 12.44210 19394 ft 410 kts 194°
2026-05-04 12:18 47.22171 12.43217 19632 ft 412 kts 194°
2026-05-04 12:18 47.19381 12.42206 19862 ft 414 kts 194°
2026-05-04 12:19 47.16578 12.41191 20066 ft 415 kts 194°
2026-05-04 12:19 47.13769 12.40175 20259 ft 417 kts 194°
2026-05-04 12:19 47.10943 12.39155 20452 ft 419 kts 194°
2026-05-04 12:19 47.08113 12.38137 20631 ft 420 kts 194°
2026-05-04 12:20 47.05272 12.37111 20814 ft 421 kts 194°
2026-05-04 12:20 47.02419 12.36077 20990 ft 423 kts 194°
2026-05-04 12:20 46.99559 12.35045 21159 ft 424 kts 194°
2026-05-04 12:20 46.96732 12.34024 21323 ft 425 kts 194°
2026-05-04 12:21 46.93851 12.32983 21481 ft 426 kts 194°
2026-05-04 12:21 46.90968 12.31942 21624 ft 427 kts 194°
2026-05-04 12:21 46.88074 12.30904 21765 ft 429 kts 194°
2026-05-04 12:21 46.85176 12.29866 21897 ft 430 kts 194°
2026-05-04 12:22 46.82291 12.28718 22022 ft 430 kts 199°
2026-05-04 12:22 46.79550 12.26966 22149 ft 431 kts 209°
2026-05-04 12:22 46.77041 12.24572 22274 ft 432 kts 218°
2026-05-04 12:22 46.74694 12.21927 22400 ft 432 kts 218°
2026-05-04 12:23 46.72307 12.19256 22524 ft 433 kts 217°
2026-05-04 12:23 46.69912 12.16593 22649 ft 434 kts 217°
2026-05-04 12:23 46.67508 12.13936 22773 ft 434 kts 217°
2026-05-04 12:23 46.65100 12.11289 22898 ft 434 kts 217°
2026-05-04 12:24 46.62687 12.08641 23022 ft 435 kts 217°
2026-05-04 12:24 46.60274 12.05988 23146 ft 435 kts 217°
2026-05-04 12:24 46.57894 12.03369 23269 ft 435 kts 217°
2026-05-04 12:24 46.55483 12.00711 23393 ft 435 kts 217°
2026-05-04 12:25 46.53074 11.98055 23518 ft 435 kts 217°
2026-05-04 12:25 46.50657 11.95400 23643 ft 435 kts 217°
2026-05-04 12:25 46.48239 11.92750 23767 ft 435 kts 217°
2026-05-04 12:25 46.45823 11.90105 23892 ft 435 kts 217°
2026-05-04 12:26 46.43406 11.87461 24015 ft 435 kts 217°
2026-05-04 12:26 46.41022 11.84855 24137 ft 435 kts 217°
2026-05-04 12:26 46.38608 11.82216 24262 ft 435 kts 217°
2026-05-04 12:26 46.36197 11.79582 24387 ft 434 kts 217°
2026-05-04 12:27 46.33784 11.76953 24512 ft 434 kts 217°
2026-05-04 12:27 46.31368 11.74324 24637 ft 434 kts 217°
2026-05-04 12:27 46.28958 11.71702 24762 ft 434 kts 217°
2026-05-04 12:27 46.26545 11.69082 24886 ft 433 kts 217°
2026-05-04 12:28 46.24136 11.66472 25010 ft 433 kts 217°
2026-05-04 12:28 46.21729 11.63865 25135 ft 432 kts 217°
2026-05-04 12:28 46.19357 11.61298 25257 ft 432 kts 217°
2026-05-04 12:28 46.16957 11.58702 25382 ft 431 kts 217°
2026-05-04 12:29 46.14558 11.56110 25506 ft 430 kts 217°
2026-05-04 12:29 46.12165 11.53527 25631 ft 429 kts 217°
2026-05-04 12:29 46.09776 11.50953 25755 ft 429 kts 217°
2026-05-04 12:29 46.07389 11.48384 25879 ft 428 kts 217°
2026-05-04 12:30 46.05009 11.45825 26004 ft 427 kts 217°
2026-05-04 12:30 46.02627 11.43271 26128 ft 426 kts 217°
2026-05-04 12:30 46.00284 11.40762 26251 ft 425 kts 217°
2026-05-04 12:30 45.97915 11.38225 26376 ft 424 kts 217°
2026-05-04 12:31 45.95549 11.35689 26500 ft 424 kts 217°
2026-05-04 12:31 45.93189 11.33161 26624 ft 423 kts 217°
2026-05-04 12:31 45.90829 11.30638 26750 ft 423 kts 217°
2026-05-04 12:31 45.88472 11.28121 26874 ft 422 kts 217°
2026-05-04 12:32 45.86123 11.25615 26999 ft 421 kts 217°
2026-05-04 12:32 45.81459 11.20649 27246 ft 420 kts 217°
2026-05-04 12:32 45.79114 11.18162 27371 ft 419 kts 217°
2026-05-04 12:33 45.76775 11.15683 27496 ft 418 kts 217°
2026-05-04 12:33 45.74438 11.13206 27620 ft 418 kts 217°
2026-05-04 12:33 45.72102 11.10733 27745 ft 417 kts 216°
2026-05-04 12:33 45.69773 11.08271 27869 ft 416 kts 216°
2026-05-04 12:34 45.67444 11.05815 27994 ft 416 kts 216°
2026-05-04 12:34 45.65118 11.03367 28119 ft 415 kts 216°
2026-05-04 12:34 45.62834 11.00943 28242 ft 414 kts 217°
2026-05-04 12:34 45.60553 10.98439 28367 ft 413 kts 218°
2026-05-04 12:35 45.58293 10.95906 28492 ft 413 kts 218°
2026-05-04 12:35 45.56044 10.93366 28616 ft 412 kts 218°
2026-05-04 12:35 45.53801 10.90832 28741 ft 411 kts 218°
2026-05-04 12:35 45.51562 10.88313 28866 ft 410 kts 218°
2026-05-04 12:36 45.49318 10.85805 28990 ft 409 kts 218°
2026-05-04 12:36 45.47074 10.83312 29115 ft 408 kts 218°
2026-05-04 12:36 45.44835 10.80835 29240 ft 408 kts 218°
2026-05-04 12:36 45.42624 10.78399 29363 ft 407 kts 218°
2026-05-04 12:37 45.40389 10.75937 29488 ft 406 kts 218°
2026-05-04 12:37 45.38155 10.73478 29613 ft 405 kts 218°
2026-05-04 12:37 45.35926 10.71030 29738 ft 405 kts 218°
2026-05-04 12:37 45.33700 10.68591 29863 ft 404 kts 218°
2026-05-04 12:38 45.31477 10.66152 29987 ft 403 kts 218°
2026-05-04 12:38 45.29259 10.63713 30112 ft 403 kts 218°
2026-05-04 12:38 45.27050 10.61281 30237 ft 402 kts 218°
2026-05-04 12:38 45.24871 10.58884 30360 ft 401 kts 218°
2026-05-04 12:39 45.22666 10.56463 30485 ft 401 kts 218°
2026-05-04 12:39 45.20464 10.54052 30609 ft 400 kts 218°
2026-05-04 12:39 45.18261 10.51648 30734 ft 399 kts 218°
2026-05-04 12:39 45.16062 10.49254 30859 ft 398 kts 217°
2026-05-04 12:40 45.13866 10.46868 30984 ft 397 kts 217°
2026-05-04 12:40 45.11677 10.44487 31108 ft 397 kts 217°
2026-05-04 12:40 45.09491 10.42111 31233 ft 396 kts 218°
2026-05-04 12:40 45.07308 10.39737 31358 ft 395 kts 217°
2026-05-04 12:41 45.05161 10.37404 31481 ft 394 kts 218°
2026-05-04 12:41 45.02989 10.35041 31606 ft 393 kts 218°
2026-05-04 12:41 45.00823 10.32683 31731 ft 392 kts 218°
2026-05-04 12:41 44.98664 10.30335 31855 ft 391 kts 217°
2026-05-04 12:42 44.96507 10.27998 31980 ft 391 kts 217°
2026-05-04 12:42 44.94349 10.25668 32105 ft 389 kts 217°
2026-05-04 12:42 44.92199 10.23350 32229 ft 388 kts 217°
2026-05-04 12:42 44.90052 10.21042 32354 ft 387 kts 217°
2026-05-04 12:43 44.87943 10.18775 32477 ft 386 kts 217°
2026-05-04 12:43 44.85809 10.16479 32602 ft 385 kts 217°
2026-05-04 12:43 44.83685 10.14195 32726 ft 384 kts 217°
2026-05-04 12:43 44.81565 10.11915 32851 ft 383 kts 217°
2026-05-04 12:44 44.79452 10.09648 32976 ft 381 kts 217°
2026-05-04 12:44 44.77346 10.07387 33100 ft 380 kts 217°
2026-05-04 12:44 44.75248 10.05139 33225 ft 378 kts 217°
2026-05-04 12:44 44.73158 10.02898 33349 ft 377 kts 217°
2026-05-04 12:45 44.71105 10.00699 33472 ft 376 kts 217°
2026-05-04 12:45 44.69029 9.98482 33597 ft 374 kts 217°
2026-05-04 12:45 44.66958 9.96275 33721 ft 373 kts 217°
2026-05-04 12:45 44.64900 9.94077 33851 ft 371 kts 217°
2026-05-04 12:46 44.62856 9.91894 33981 ft 369 kts 217°
2026-05-04 12:46 44.58750 9.87520 34010 ft 372 kts 217°
2026-05-04 12:47 44.54628 9.83139 34010 ft 376 kts 217°
2026-05-04 12:47 44.50432 9.78689 34009 ft 380 kts 217°
2026-05-04 12:48 44.46192 9.74203 34010 ft 384 kts 217°
2026-05-04 12:48 44.41907 9.69683 34009 ft 387 kts 217°
2026-05-04 12:49 44.37615 9.65161 34010 ft 391 kts 217°
2026-05-04 12:49 44.33253 9.60569 34010 ft 394 kts 217°
2026-05-04 12:49 44.31050 9.58251 33733 ft 403 kts 217°
2026-05-04 12:50 44.28769 9.55861 33379 ft 414 kts 217°
2026-05-04 12:50 44.24133 9.51033 33359 ft 416 kts 217°
2026-05-04 12:51 44.19520 9.46234 33413 ft 417 kts 217°
2026-05-04 12:51 44.14867 9.41399 33461 ft 417 kts 217°
2026-05-04 12:52 44.10210 9.36575 33555 ft 416 kts 217°
2026-05-04 12:52 44.07890 9.34176 33678 ft 414 kts 217°
2026-05-04 12:52 44.05587 9.31797 33801 ft 411 kts 217°
2026-05-04 12:52 44.03299 9.29433 33956 ft 408 kts 217°
2026-05-04 12:53 44.01053 9.27111 34008 ft 408 kts 217°
2026-05-04 12:53 43.96489 9.22410 34009 ft 409 kts 217°
2026-05-04 12:54 43.91900 9.17699 34009 ft 411 kts 217°
2026-05-04 12:54 43.87295 9.12969 34009 ft 413 kts 217°
2026-05-04 12:55 43.82671 9.08229 34009 ft 414 kts 216°
2026-05-04 12:55 43.78056 9.03515 34009 ft 416 kts 216°
2026-05-04 12:56 43.73391 8.98759 34009 ft 417 kts 216°
2026-05-04 12:56 43.68708 8.93992 34009 ft 419 kts 216°
2026-05-04 12:57 43.64011 8.89211 34009 ft 420 kts 216°
2026-05-04 12:57 43.59333 8.84455 34009 ft 421 kts 216°
2026-05-04 12:58 43.54602 8.79678 34009 ft 422 kts 216°
2026-05-04 12:58 43.49858 8.74900 34009 ft 423 kts 216°
2026-05-04 12:59 43.45254 8.69870 34009 ft 423 kts 225°
2026-05-04 12:59 43.41179 8.64084 34009 ft 424 kts 226°
2026-05-04 13:00 43.37062 8.58267 34009 ft 425 kts 226°
2026-05-04 13:00 43.32930 8.52452 34009 ft 426 kts 226°
2026-05-04 13:01 43.28787 8.46634 34009 ft 426 kts 225°
2026-05-04 13:01 43.24634 8.40818 34009 ft 427 kts 225°
2026-05-04 13:02 43.20501 8.35036 34009 ft 428 kts 225°
2026-05-04 13:02 43.16334 8.29211 34009 ft 428 kts 225°
2026-05-04 13:03 43.12158 8.23386 34009 ft 429 kts 225°
2026-05-04 13:03 43.07970 8.17562 34009 ft 429 kts 225°
2026-05-04 13:04 43.03803 8.11779 34009 ft 430 kts 225°
2026-05-04 13:04 42.99609 8.05950 34009 ft 430 kts 225°
2026-05-04 13:05 42.95399 8.00127 34009 ft 431 kts 225°
2026-05-04 13:05 42.91178 7.94311 34009 ft 431 kts 225°
2026-05-04 13:06 42.86976 7.88540 34009 ft 432 kts 225°
2026-05-04 13:06 42.82741 7.82725 34009 ft 432 kts 225°
2026-05-04 13:07 42.78503 7.76914 34009 ft 433 kts 225°
2026-05-04 13:07 42.74259 7.71096 34009 ft 433 kts 225°
2026-05-04 13:08 42.70006 7.65292 34009 ft 433 kts 225°
2026-05-04 13:08 42.65776 7.59526 34009 ft 434 kts 225°
2026-05-04 13:09 42.61506 7.53728 34009 ft 434 kts 225°
2026-05-04 13:09 42.57234 7.47933 34009 ft 434 kts 225°
2026-05-04 13:10 42.52957 7.42137 34009 ft 435 kts 225°
2026-05-04 13:10 42.48704 7.36382 34009 ft 435 kts 225°
2026-05-04 13:11 42.44416 7.30597 34009 ft 435 kts 225°
2026-05-04 13:11 42.40115 7.24818 34009 ft 436 kts 225°
2026-05-04 13:12 42.35815 7.19040 34009 ft 436 kts 225°
2026-05-04 13:12 42.31542 7.13306 34009 ft 436 kts 225°
2026-05-04 13:13 42.27228 7.07539 34009 ft 436 kts 225°
2026-05-04 13:13 42.22908 7.01780 34009 ft 437 kts 225°
2026-05-04 13:14 42.18584 6.96022 34009 ft 437 kts 225°
2026-05-04 13:14 42.14262 6.90268 34009 ft 437 kts 224°
2026-05-04 13:15 42.09958 6.84558 34009 ft 437 kts 224°
2026-05-04 13:15 42.05621 6.78816 34009 ft 437 kts 224°
2026-05-04 13:16 42.01280 6.73078 34009 ft 438 kts 224°
2026-05-04 13:16 41.96934 6.67346 34009 ft 438 kts 224°
2026-05-04 13:17 41.92611 6.61661 34009 ft 438 kts 224°
2026-05-04 13:17 41.88253 6.55945 34009 ft 438 kts 224°
2026-05-04 13:18 41.83898 6.50227 34009 ft 438 kts 224°
2026-05-04 13:18 41.79537 6.44511 34009 ft 438 kts 224°
2026-05-04 13:19 41.75196 6.38850 34009 ft 439 kts 224°
2026-05-04 13:19 41.70823 6.33156 34009 ft 439 kts 224°
2026-05-04 13:20 41.66453 6.27458 34009 ft 439 kts 224°
2026-05-04 13:20 41.62071 6.21776 34009 ft 439 kts 224°
2026-05-04 13:21 41.57709 6.16138 34009 ft 439 kts 224°
2026-05-04 13:21 41.53324 6.10465 34009 ft 439 kts 224°
2026-05-04 13:22 41.48935 6.04792 34009 ft 439 kts 224°
2026-05-04 13:22 41.44536 5.99135 34009 ft 439 kts 224°
2026-05-04 13:23 41.40130 5.93486 34009 ft 440 kts 224°
2026-05-04 13:23 41.35755 5.87883 34009 ft 440 kts 224°
2026-05-04 13:24 41.31349 5.82231 34009 ft 440 kts 224°
2026-05-04 13:24 41.26941 5.76588 34009 ft 440 kts 224°
2026-05-04 13:25 41.20311 5.68155 34009 ft 440 kts 224°
2026-05-04 13:25 41.15914 5.62574 34008 ft 440 kts 224°
2026-05-04 13:26 41.13693 5.59746 33779 ft 446 kts 224°
2026-05-04 13:26 41.11436 5.56875 33479 ft 453 kts 224°
2026-05-04 13:26 41.09156 5.53979 33178 ft 456 kts 224°
2026-05-04 13:26 41.06845 5.51053 32877 ft 463 kts 224°
2026-05-04 13:27 41.04505 5.48092 32575 ft 466 kts 224°
2026-05-04 13:27 41.02157 5.45130 32274 ft 466 kts 224°
2026-05-04 13:27 40.99847 5.42221 31978 ft 464 kts 223°
2026-05-04 13:27 40.97515 5.39286 31678 ft 461 kts 223°
2026-05-04 13:28 40.95196 5.36373 31378 ft 460 kts 223°
2026-05-04 13:28 40.92862 5.33442 31077 ft 466 kts 223°
2026-05-04 13:28 40.90507 5.30482 30776 ft 467 kts 224°
2026-05-04 13:28 40.88155 5.27525 30476 ft 466 kts 223°
2026-05-04 13:29 40.85810 5.24586 30176 ft 464 kts 223°
2026-05-04 13:29 40.83475 5.21664 29838 ft 461 kts 223°
2026-05-04 13:29 40.81158 5.18764 29411 ft 457 kts 223°
2026-05-04 13:29 40.78889 5.15923 28991 ft 454 kts 223°
2026-05-04 13:30 40.76608 5.13072 28566 ft 450 kts 223°
2026-05-04 13:30 40.74344 5.10251 28141 ft 446 kts 223°
2026-05-04 13:30 40.72096 5.07452 27716 ft 443 kts 223°
2026-05-04 13:30 40.69862 5.04678 27290 ft 439 kts 223°
2026-05-04 13:31 40.67648 5.01926 26864 ft 436 kts 223°
2026-05-04 13:31 40.65454 4.99198 26439 ft 432 kts 223°
2026-05-04 13:31 40.63277 4.96495 26014 ft 429 kts 223°
2026-05-04 13:31 40.61145 4.93850 25595 ft 425 kts 223°
2026-05-04 13:32 40.59001 4.91190 25169 ft 422 kts 223°
2026-05-04 13:32 40.56874 4.88553 24744 ft 419 kts 223°
2026-05-04 13:32 40.54764 4.85939 24318 ft 415 kts 223°
2026-05-04 13:32 40.52669 4.83349 23913 ft 412 kts 223°
2026-05-04 13:33 40.50587 4.80782 23628 ft 409 kts 223°
2026-05-04 13:33 40.48516 4.78230 23353 ft 407 kts 223°
2026-05-04 13:33 40.46455 4.75689 23078 ft 405 kts 223°
2026-05-04 13:33 40.44403 4.73165 22802 ft 403 kts 223°
2026-05-04 13:34 40.42387 4.70687 22531 ft 401 kts 223°
2026-05-04 13:34 40.40354 4.68190 22255 ft 399 kts 223°
2026-05-04 13:34 40.38482 4.65520 21977 ft 397 kts 233°
2026-05-04 13:34 40.36870 4.62593 21704 ft 395 kts 234°
2026-05-04 13:35 40.35264 4.59680 21428 ft 393 kts 234°
2026-05-04 13:35 40.32065 4.53910 20878 ft 389 kts 234°
2026-05-04 13:35 40.30476 4.51047 20602 ft 387 kts 234°
2026-05-04 13:36 40.28917 4.48238 20331 ft 385 kts 234°
2026-05-04 13:36 40.27345 4.45407 20055 ft 383 kts 234°
2026-05-04 13:36 40.25779 4.42590 19780 ft 381 kts 234°
2026-05-04 13:36 40.24223 4.39792 19505 ft 380 kts 234°
2026-05-04 13:37 40.22677 4.37010 19228 ft 375 kts 234°
2026-05-04 13:37 40.21159 4.34280 18951 ft 366 kts 234°
2026-05-04 13:37 40.19674 4.31617 18675 ft 358 kts 234°
2026-05-04 13:37 40.18707 4.29886 18492 ft 354 kts 233°
2026-05-04 13:38 40.16807 4.26493 18127 ft 346 kts 233°
2026-05-04 13:38 40.15395 4.23972 17852 ft 341 kts 233°
2026-05-04 13:38 40.14006 4.21489 17582 ft 336 kts 234°
2026-05-04 13:38 40.12635 4.19037 17331 ft 332 kts 233°
2026-05-04 13:39 40.11275 4.16607 17081 ft 330 kts 233°
2026-05-04 13:39 40.09922 4.14190 16831 ft 329 kts 233°
2026-05-04 13:39 40.08573 4.11785 16580 ft 327 kts 233°
2026-05-04 13:39 40.07230 4.09395 16330 ft 326 kts 233°
2026-05-04 13:40 40.05910 4.07049 16083 ft 324 kts 233°
2026-05-04 13:40 40.04577 4.04679 15832 ft 323 kts 233°
2026-05-04 13:40 40.03252 4.02321 15582 ft 321 kts 233°
2026-05-04 13:40 40.01932 3.99978 15332 ft 320 kts 233°
2026-05-04 13:41 40.00614 3.97645 15081 ft 319 kts 233°
2026-05-04 13:41 39.99304 3.95327 14830 ft 317 kts 233°
2026-05-04 13:41 39.97999 3.93018 14579 ft 316 kts 233°
2026-05-04 13:42 39.95405 3.88433 14078 ft 313 kts 233°
2026-05-04 13:42 39.94133 3.86185 13831 ft 311 kts 233°
2026-05-04 13:42 39.92848 3.83923 13581 ft 310 kts 233°
2026-05-04 13:42 39.91568 3.81673 13330 ft 309 kts 233°
2026-05-04 13:43 39.90294 3.79430 13079 ft 307 kts 233°
2026-05-04 13:43 39.89028 3.77197 12819 ft 306 kts 233°
2026-05-04 13:43 39.87769 3.74973 12543 ft 304 kts 233°
2026-05-04 13:43 39.86517 3.72763 12268 ft 303 kts 233°
2026-05-04 13:44 39.85270 3.70564 11992 ft 301 kts 233°
2026-05-04 13:44 39.84031 3.68378 11717 ft 300 kts 233°
2026-05-04 13:44 39.82812 3.66233 11445 ft 298 kts 233°
2026-05-04 13:44 39.81577 3.64069 11169 ft 297 kts 233°
2026-05-04 13:45 39.80348 3.61920 10894 ft 295 kts 233°
2026-05-04 13:45 39.79126 3.59783 10618 ft 294 kts 233°
2026-05-04 13:45 39.77909 3.57655 10343 ft 292 kts 233°
2026-05-04 13:45 39.76701 3.55537 10067 ft 291 kts 233°
2026-05-04 13:46 39.75497 3.53431 9792 ft 290 kts 233°
2026-05-04 13:46 39.74312 3.51368 9520 ft 288 kts 233°
2026-05-04 13:46 39.73115 3.49287 9245 ft 287 kts 233°
2026-05-04 13:46 39.71926 3.47217 8970 ft 285 kts 233°
2026-05-04 13:47 39.70766 3.45135 8692 ft 284 kts 239°
2026-05-04 13:47 39.70017 3.42784 8417 ft 282 kts 257°
2026-05-04 13:47 39.69862 3.40259 8142 ft 281 kts 272°
2026-05-04 13:47 39.69955 3.37723 7867 ft 281 kts 272°
2026-05-04 13:48 39.70042 3.35188 7412 ft 284 kts 272°
2026-05-04 13:48 39.70125 3.32629 7032 ft 282 kts 272°
2026-05-04 13:48 39.70202 3.30143 6770 ft 276 kts 272°
2026-05-04 13:48 39.70278 3.27682 6523 ft 269 kts 272°
2026-05-04 13:49 39.70352 3.25287 6289 ft 262 kts 272°
2026-05-04 13:49 39.70423 3.22952 6062 ft 256 kts 272°
2026-05-04 13:49 39.70493 3.20673 5845 ft 250 kts 272°
2026-05-04 13:49 39.70563 3.18423 5622 ft 248 kts 272°
2026-05-04 13:50 39.70632 3.16187 5398 ft 247 kts 272°
2026-05-04 13:50 39.70699 3.13975 5178 ft 243 kts 272°
2026-05-04 13:50 39.70765 3.11837 4968 ft 238 kts 272°
2026-05-04 13:50 39.70753 3.09717 4758 ft 233 kts 261°
2026-05-04 13:51 39.70325 3.07723 4554 ft 228 kts 245°
2026-05-04 13:51 39.69550 3.05957 4354 ft 223 kts 238°
2026-05-04 13:51 39.68745 3.04252 4158 ft 220 kts 238°
2026-05-04 13:51 39.67957 3.02572 3964 ft 216 kts 238°
2026-05-04 13:52 39.66417 2.99288 3599 ft 208 kts 238°
2026-05-04 13:52 39.65692 2.97741 3419 ft 199 kts 239°
2026-05-04 13:52 39.64986 2.96237 3229 ft 190 kts 238°
2026-05-04 13:53 39.64316 2.94808 3077 ft 182 kts 238°
2026-05-04 13:53 39.63663 2.93416 2912 ft 179 kts 238°
2026-05-04 13:53 39.63018 2.92042 2758 ft 178 kts 238°
2026-05-04 13:54 39.61737 2.89318 2343 ft 176 kts 238°
2026-05-04 13:54 39.61100 2.87965 2104 ft 175 kts 238°
2026-05-04 13:54 39.59864 2.85339 1652 ft 161 kts 238°
2026-05-04 13:55 39.59303 2.84148 1443 ft 153 kts 238°
2026-05-04 13:55 39.58202 2.81848 1042 ft 148 kts 237°
2026-05-04 13:55 39.57673 2.80708 864 ft 147 kts 240°
2026-05-04 13:56 39.57157 2.79560 667 ft 147 kts 238°
2026-05-04 13:56 39.56611 2.78445 439 ft 146 kts 238°
2026-05-04 13:56 39.55559 2.76202 112 ft 146 kts 237°
2026-05-04 13:57 39.55046 2.75120 38 ft 130 kts 239°
2026-05-04 13:57 39.54728 2.74458 38 ft 48 kts 240°
2026-05-04 13:58 39.54550 2.73818 38 ft 0 kts 271°
2026-05-04 13:58 39.54550 2.73770 38 ft 9 kts 270°
2026-05-04 13:58 39.54557 2.73704 38 ft 9 kts 291°
2026-05-04 13:59 39.54616 2.73622 38 ft 13 kts 335°
2026-05-04 13:59 39.54630 2.73564 38 ft 9 kts 288°
2026-05-04 13:59 39.54750 2.73467 38 ft 0 kts
2026-05-04 14:00 39.54798 2.73513 38 ft 5 kts 30°
2026-05-04 14:00 39.54819 2.73539 38 ft 4 kts 58°
2026-05-04 14:01 39.54829 2.73559 38 ft 1 kts 58°
2026-05-04 14:01 39.54830 2.73561 38 ft 1 kts 58°
2026-05-04 14:01 39.54832 2.73566 38 ft 0 kts 58°